SCP
0 0 0 0 0 0 0 0 0 0 0 0 0 0 0 0 0 0 0 0 0 0 0 0 0 0 0 0 0 0 0 0
0 0 0 0 0 0 0 0 0 0 0 0 0 0 0 0 0 0 0 0 0 0 0 0 0 0 0 0 0 0 0 0
0 0 0 0 0 0 0 0 0 0 0 0 0 0 0 0 0 0 0 0 0 0 0 0 0 0 0 0 0 0 0 0
0 0 0 0 0 0 0 0 0 0 0 0 0 0 0 0 0 0 0 0 0 0 0 0 0 0 0 0 0 0 0 0
0 0 0 0 0 0 0 0 0 0 0 0 0 0 0 0 0 0 0 0 0 0 0 0 0 0 0 0 0 0 0 0
0 0 0 0 0 0 0 0 0 0 0 0 0 0 0 0 0 0 0 0 0 0 0 0 0 0 0 0 0 0 0 0
0 0 0 0 0 0 0 0 0 0 0 0 0 0 0 0 0 0 0 0 0 0 0 0 0 0 0 0 0 0 0 0
0 0 0 0 0 0 0 0 0 0 0 0 0 0 0 0 0 0 0 0 0 0 0 0 0 0 0 0 0 0 0 0
0 0 0 0 0 0 0 0 0 0 0 0 0 0 0 0 0 0 0 0 0 0 0 0 0 0 0 0 0 0 0 0
0 0 0 0 0 0 0 0 0 0 0 0 0 0 0 0 0 0 0 0 0 0 0 0 0 0 0 0 0 0 0 0
0 0 0 0 0 0 0 0 0 0 0 0 0 0 0 0 0 0 0 0 0 0 0 0 0 0 0 0 0 0 0 0
0 0 0 0 0 0 0 0 0 0 0 0 0 0 0 0 0 0 0 0 0 0 0 0 0 0 0 0 0 0 0 0
0 0 0 0 0 0 0 0 0 0 0 0 0 0 0 0 0 0 0 0 0 0 0 0 0 0 0 0 0 0 0 0
0 0 0 0 0 0 0 0 0 0 0 0 0 0 0 0 0 0 0 0 0 0 0 0 0 0 0 0 0 0 0 0
0 0 0 0 0 0 0 0 0 0 0 0 0 0 0 0 0 0 0 0 0 0 0 0 0 0 0 0 0 0 0 0
0 0 0 0 0 0 0 0 0 0 0 0 0 0 0 0 0 0 0 0 0 0 0 0 0 0 0 0 0 0 0 0
0 0 0 0 0 0 0 0 0 0 0 0 0 0 0 0 0 0 0 0 0 0 0 0 0 0 0 0 0 0 0 0
0 0 0 0 0 0 0 0 0 0 0 0 0 0 0 0 0 0 0 0 0 0 0 0 0 0 0 0 0 0 0 0
0 0 0 0 0 0 0 0 0 0 0 0 0 0 0 0 0 0 0 0 0 0 0 0 0 0 0 0 0 0 0 0
0 0 0 0 0 0 0 0 0 0 0 0 0 0 0 0 0 0 0 0 0 0 0 0 0 0 0 0 0 0 0 0
Wind_Speed_500mb
70 69 68 65 60 55 49 41 34 33 30 27 25 23 21 18 16 13 11 9 9 11 15 18 22 25 27 29 32 33 34 37
75 75 72 70 65 60 55 46 40 37 34 32 31 30 26 23 19 16 14 10 9 13 18 22 26 28 31 33 35 36 39 41
74 79 76 74 69 66 58 51 44 42 40 38 38 36 32 29 25 21 13 11 10 14 20 25 30 35 36 37 39 42 45 48
73 81 83 77 73 69 64 58 51 50 46 45 44 42 38 34 29 23 17 14 12 17 23 29 35 39 42 44 43 45 46 49
72 80 84 82 79 74 66 62 57 51 51 50 50 47 43 40 35 29 24 20 19 21 26 30 37 42 44 45 46 48 49 51
75 76 77 78 77 69 66 63 60 55 55 55 53 52 49 47 42 37 32 29 27 28 29 33 38 43 45 49 50 51 51 53
75 76 77 71 77 72 66 64 59 59 59 59 59 57 54 51 48 44 42 39 38 36 36 36 38 44 47 51 52 54 55 56
76 80 77 68 73 68 57 58 58 60 62 62 62 58 56 56 54 53 51 50 47 44 44 44 42 45 48 53 57 58 57 57
59 58 66 66 59 49 49 52 57 60 64 62 61 60 59 60 60 59 58 58 55 53 51 50 48 46 49 55 59 60 59 59
44 48 48 48 47 45 46 49 49 51 55 56 59 61 61 63 63 63 63 63 61 58 56 53 51 50 54 58 61 61 59 59
39 42 40 40 39 40 41 41 41 42 43 45 49 55 59 59 62 65 65 64 63 61 58 56 54 53 56 59 61 61 60 59
35 33 30 29 30 34 38 40 38 32 31 37 43 48 50 54 59 64 65 65 64 61 59 60 59 58 59 58 60 58 58 59
28 24 24 28 35 40 42 36 33 29 35 40 45 47 48 50 55 61 64 64 62 61 62 63 63 62 60 59 60 57 55 57
27 24 28 30 37 41 36 43 38 34 38 45 50 53 54 55 55 58 62 64 63 63 64 64 64 64 62 60 57 52 47 52
25 27 31 37 43 48 48 49 49 43 46 50 54 60 61 60 58 59 62 64 65 65 66 65 65 65 63 59 50 44 44 45
30 33 36 40 48 52 60 61 61 56 54 56 58 62 62 60 61 61 62 63 65 68 69 68 69 63 63 56 44 44 40 51
36 38 38 42 46 51 61 67 65 65 67 64 60 57 57 61 59 62 65 68 69 70 73 71 71 61 47 39 40 37 53 60
40 39 43 46 46 51 54 57 59 61 59 55 53 55 54 56 61 64 65 69 70 73 73 72 67 52 44 48 42 47 58 59
44 45 46 48 49 49 51 54 53 52 51 48 48 48 51 54 56 61 65 68 73 72 71 69 65 62 59 44 41 57 62 55
45 45 46 47 49 49 47 43 41 40 40 40 44 46 50 54 58 62 66 70 74 75 73 66 63 65 62 46 54 61 57 52
Wind_Direction_500mb
192 193 193 193 192 191 192 194 195 196 196 200 205 206 209 212 218 226 237 250 268 299 318 324 323 318 316 316 317 321 323 325
195 198 199 200 200 200 200 200 200 202 206 208 214 219 221 224 225 230 237 255 299 319 323 325 321 319 318 316 316 319 320 325
197 203 203 205 205 207 207 208 207 209 210 214 220 223 225 227 230 232 240 266 297 317 325 326 327 323 319 316 315 319 322 325
199 206 208 208 211 212 212 215 215 215 215 219 223 226 229 231 231 237 243 261 293 315 320 325 323 321 318 315 313 314 315 318
199 206 211 211 213 215 217 219 222 222 223 225 229 230 232 233 235 237 244 257 280 296 308 315 318 315 313 310 310 309 312 315
204 204 208 212 215 216 220 223 229 228 230 233 232 232 232 236 240 242 250 262 273 284 294 304 310 310 312 309 308 306 308 311
207 206 205 209 215 219 222 228 234 237 238 236 234 234 238 241 244 248 253 262 268 276 285 292 300 309 309 306 305 304 305 308
215 212 212 206 218 222 228 235 242 243 241 238 238 242 243 245 249 252 258 262 269 275 280 284 294 303 307 305 304 303 303 306
216 212 220 220 223 229 231 240 244 245 244 242 243 245 245 248 253 257 260 267 270 272 276 281 291 300 304 304 301 300 302 305
223 216 213 211 218 225 231 238 243 246 244 244 244 246 249 254 259 262 264 268 269 272 275 278 288 298 301 301 300 300 302 304
190 197 204 206 215 226 234 239 245 249 247 244 247 250 254 261 264 264 265 266 268 271 274 278 286 294 297 298 296 299 302 302
186 195 208 221 232 236 238 240 241 236 239 248 251 255 259 262 263 264 264 264 268 271 274 279 286 292 294 293 292 295 297 298
198 206 219 228 231 231 232 232 223 245 253 251 252 253 256 262 265 263 261 264 266 270 275 281 285 291 292 291 292 295 293 297
202 207 216 228 235 237 242 227 235 257 256 254 252 253 258 261 262 262 263 264 268 272 278 282 287 290 289 288 290 291 289 294
215 228 234 242 248 243 235 235 242 254 256 257 259 260 260 259 262 265 267 268 270 273 276 280 283 285 285 285 286 284 290 296
244 247 247 253 255 249 238 240 244 252 259 264 264 261 260 262 265 269 270 270 273 275 276 277 281 283 281 281 284 287 290 281
244 248 251 253 252 245 241 246 253 259 264 266 264 260 260 262 264 268 269 269 269 271 274 277 279 281 282 269 272 276 270 276
247 250 248 251 254 250 248 251 257 261 261 257 254 253 256 258 264 269 272 273 273 275 276 277 278 273 269 260 272 268 269 277
243 244 246 249 253 255 255 257 256 251 249 247 251 253 262 267 268 270 272 274 277 278 278 278 277 274 269 265 260 263 269 277
242 244 246 250 253 255 254 251 246 244 246 252 259 264 266 269 272 275 276 278 281 282 281 282 277 274 271 262 255 258 268 273
Wind_Speed_850mb
70 69 68 65 60 55 49 41 34 33 30 27 25 23 21 18 16 13 11 9 9 11 15 18 22 25 27 29 32 33 34 37
75 75 72 70 65 60 55 46 40 37 34 32 31 30 26 23 19 16 14 10 9 13 18 22 26 28 31 33 35 36 39 41
74 79 76 74 69 66 58 51 44 42 40 38 38 36 32 29 25 21 13 11 10 14 20 25 30 35 36 37 39 42 45 48
73 81 83 77 73 69 64 58 51 50 46 45 44 42 38 34 29 23 17 14 12 17 23 29 35 39 42 44 43 45 46 49
72 80 84 82 79 74 66 62 57 51 51 50 50 47 43 40 35 29 24 20 19 21 26 30 37 42 44 45 46 48 49 51
75 76 77 78 77 69 66 63 60 55 55 55 53 52 49 47 42 37 32 29 27 28 29 33 38 43 45 49 50 51 51 53
75 76 77 71 77 72 66 64 59 59 59 59 59 57 54 51 48 44 42 39 38 36 36 36 38 44 47 51 52 54 55 56
76 80 77 68 73 68 57 58 58 60 62 62 62 58 56 56 54 53 51 50 47 44 44 44 42 45 48 53 57 58 57 57
59 58 66 66 59 49 49 52 57 60 64 62 61 60 59 60 60 59 58 58 55 53 51 50 48 46 49 55 59 60 59 59
44 48 48 48 47 45 46 49 49 51 55 56 59 61 61 63 63 63 63 63 61 58 56 53 51 50 54 58 61 61 59 59
39 42 40 40 39 40 41 41 41 42 43 45 49 55 59 59 62 65 65 64 63 61 58 56 54 53 56 59 61 61 60 59
35 33 30 29 30 34 38 40 38 32 31 37 43 48 50 54 59 64 65 65 64 61 59 60 59 58 59 58 60 58 58 59
28 24 24 28 35 40 42 36 33 29 35 40 45 47 48 50 55 61 64 64 62 61 62 63 63 62 60 59 60 57 55 57
27 24 28 30 37 41 36 43 38 34 38 45 50 53 54 55 55 58 62 64 63 63 64 64 64 64 62 60 57 52 47 52
25 27 31 37 43 48 48 49 49 43 46 50 54 60 61 60 58 59 62 64 65 65 66 65 65 65 63 59 50 44 44 45
30 33 36 40 48 52 60 61 61 56 54 56 58 62 62 60 61 61 62 63 65 68 69 68 69 63 63 56 44 44 40 51
36 38 38 42 46 51 61 67 65 65 67 64 60 57 57 61 59 62 65 68 69 70 73 71 71 61 47 39 40 37 53 60
40 39 43 46 46 51 54 57 59 61 59 55 53 55 54 56 61 64 65 69 70 73 73 72 67 52 44 48 42 47 58 59
44 45 46 48 49 49 51 54 53 52 51 48 48 48 51 54 56 61 65 68 73 72 71 69 65 62 59 44 41 57 62 55
45 45 46 47 49 49 47 43 41 40 40 40 44 46 50 54 58 62 66 70 74 75 73 66 63 65 62 46 54 61 57 52
Wind_Direction_850mb
192 193 193 193 192 191 192 194 195 196 196 200 205 206 209 212 218 226 237 250 268 299 318 324 323 318 316 316 317 321 323 325
195 198 199 200 200 200 200 200 200 202 206 208 214 219 221 224 225 230 237 255 299 319 323 325 321 319 318 316 316 319 320 325
197 203 203 205 205 207 207 208 207 209 210 214 220 223 225 227 230 232 240 266 297 317 325 326 327 323 319 316 315 319 322 325
199 206 208 208 211 212 212 215 215 215 215 219 223 226 229 231 231 237 243 261 293 315 320 325 323 321 318 315 313 314 315 318
199 206 211 211 213 215 217 219 222 222 223 225 229 230 232 233 235 237 244 257 280 296 308 315 318 315 313 310 310 309 312 315
204 204 208 212 215 216 220 223 229 228 230 233 232 232 232 236 240 242 250 262 273 284 294 304 310 310 312 309 308 306 308 311
207 206 205 209 215 219 222 228 234 237 238 236 234 234 238 241 244 248 253 262 268 276 285 292 300 309 309 306 305 304 305 308
215 212 212 206 218 222 228 235 242 243 241 238 238 242 243 245 249 252 258 262 269 275 280 284 294 303 307 305 304 303 303 306
216 212 220 220 223 229 231 240 244 245 244 242 243 245 245 248 253 257 260 267 270 272 276 281 291 300 304 304 301 300 302 305
223 216 213 211 218 225 231 238 243 246 244 244 244 246 249 254 259 262 264 268 269 272 275 278 288 298 301 301 300 300 302 304
190 197 204 206 215 226 234 239 245 249 247 244 247 250 254 261 264 264 265 266 268 271 274 278 286 294 297 298 296 299 302 302
186 195 208 221 232 236 238 240 241 236 239 248 251 255 259 262 263 264 264 264 268 271 274 279 286 292 294 293 292 295 297 298
198 206 219 228 231 231 232 232 223 245 253 251 252 253 256 262 265 263 261 264 266 270 275 281 285 291 292 291 292 295 293 297
202 207 216 228 235 237 242 227 235 257 256 254 252 253 258 261 262 262 263 264 268 272 278 282 287 290 289 288 290 291 289 294
215 228 234 242 248 243 235 235 242 254 256 257 259 260 260 259 262 265 267 268 270 273 276 280 283 285 285 285 286 284 290 296
244 247 247 253 255 249 238 240 244 252 259 264 264 261 260 262 265 269 270 270 273 275 276 277 281 283 281 281 284 287 290 281
244 248 251 253 252 245 241 246 253 259 264 266 264 260 260 262 264 268 269 269 269 271 274 277 279 281 282 269 272 276 270 276
247 250 248 251 254 250 248 251 257 261 261 257 254 253 256 258 264 269 272 273 273 275 276 277 278 273 269 260 272 268 269 277
243 244 246 249 253 255 255 257 256 251 249 247 251 253 262 267 268 270 272 274 277 278 278 278 277 274 269 265 260 263 269 277
242 244 246 250 253 255 254 251 246 244 246 252 259 264 266 269 272 275 276 278 281 282 281 282 277 274 271 262 255 258 268 273